Weather History for Kansas City International, MO

Change the Weather History Date:

Sunday, November 11, 2012

  Actual Average Record
Temperature  
Mean Temperature 48 °F 46 °F  
Max Temperature 69 °F 56 °F 81 °F (1949)
Min Temperature 26 °F 36 °F 9 °F (1986)
Degree Days  
Heating Degree Days 17 19  
Month to date heating degree days 144 184  
Since 1 July heating degree days 546 544  
Cooling Degree Days 0 0  
Month to date cooling degree days 5 0  
Year to date cooling degree days 1839 1358  
Moisture  
Dew Point 38 °F    
Average Humidity 78    
Maximum Humidity 100    
Minimum Humidity 55    
Precipitation  
Precipitation 1.16 in 0.07 in 1.16 in (2012)
Month to date precipitation 1.36 0.86  
Year to date precipitation 20.94 36.04  
Snow  
Snow 0.00 in 0.00 in 0.20 in (1911)
Month to date snowfall 0.0 0.2  
Since 1 July snowfall 0.0 0.4  
Since 1 September snowfall 0.0 0.4  
Snow Depth 0.00 in    
Sea Level Pressure  
Sea Level Pressure 29.88 in    
Wind  
Wind Speed 11 mph (WNW)    
Max Wind Speed 31 mph    
Max Gust Speed 39 mph    
Visibility 8 miles    
Events Rain , Thunderstorm    
T = Trace of Precipitation, MM = Missing Value Source: NWS Daily Summary

Daily Weather History Graph

Daily Weather History Graph

Search for Another Location

Airport:

Trip Planner

Search our weather history database for the weather conditions in past years. The results will help you decide how hot, cold, wet, or windy it might be!

Date:

Astronomy

Nov. 11, 2012 Rise Set
Actual Time 6:58 AM CST 5:07 PM CST
Civil Twilight 6:30 AM CST 5:35 PM CST
Nautical Twilight 5:57 AM CST 6:07 PM CST
Astronomical Twilight 5:26 AM CST 6:39 PM CST
Moon 4:14 AM CST (11/11) 3:30 PM CST (11/11)
Length of Visible Light 11h 05m
Length of Day
10h 08m
Waning Crescent, 7% of the Moon is Illuminated
Nov 11
Waning Crescent
Nov 13
New
Nov 20
First Quarter
Nov 28
Full
Dec 6
Last Quarter

Hourly Weather History & Observations

Time (CST) Temp. Windchill Dew Point Humidity Pressure Visibility Wind Dir Wind Speed Gust Speed Precip Events Conditions
12:53 AM 68.0 °F - 53.1 °F 59% 29.67 in 10.0 mi SSW 26.5 mph 35.7 mph N/A   Overcast
1:26 AM 66.2 °F - 51.8 °F 60% 29.72 in 10.0 mi WNW 12.7 mph 25.3 mph N/A   Overcast
1:53 AM 60.1 °F - 54.0 °F 80% 29.70 in 8.0 mi NW 3.5 mph - 0.01 in Rain Light Rain
2:53 AM 61.0 °F - 55.0 °F 81% 29.65 in 10.0 mi SSE 11.5 mph - N/A Rain Light Rain
3:53 AM 63.0 °F - 57.0 °F 81% 29.63 in 10.0 mi South 15.0 mph - 0.03 in Rain Light Rain
4:12 AM 60.8 °F - 57.2 °F 88% 29.68 in 3.0 mi WSW 8.1 mph 25.3 mph 0.08 in Rain Rain
4:53 AM 60.1 °F - 57.0 °F 90% 29.62 in 10.0 mi WNW 3.5 mph - 0.14 in Rain Light Rain
5:00 AM 60.8 °F - 57.2 °F 88% 29.68 in 10.0 mi WSW 10.4 mph - 0.00 in Rain Light Rain
5:08 AM 60.8 °F - 57.2 °F 88% 29.69 in 2.5 mi WSW 10.4 mph - 0.07 in Rain Heavy Rain
5:17 AM 59.0 °F - 57.2 °F 94% 29.66 in 2.5 mi WNW 8.1 mph - 0.13 in Rain , Thunderstorm Light Thunderstorms and Rain
5:30 AM 59.0 °F - 57.2 °F 94% 29.69 in 9.0 mi West 13.8 mph 19.6 mph 0.13 in Rain Light Rain
5:35 AM 59.0 °F - 57.2 °F 94% 29.69 in 3.0 mi West 15.0 mph 23.0 mph 0.17 in Rain Heavy Rain
5:49 AM 46.4 °F 39.0 °F 44.6 °F 93% 29.72 in 4.0 mi WNW 19.6 mph 31.1 mph N/A Rain Rain
5:50 AM 46.4 °F 38.7 °F 44.6 °F 93% 29.73 in 4.0 mi WNW 20.7 mph 31.1 mph N/A Rain Rain
6:29 AM 42.8 °F 35.1 °F 41.0 °F 93% 29.77 in 6.0 mi NW 16.1 mph 24.2 mph 0.10 in Rain Rain
6:53 AM 41.0 °F 34.7 °F 39.9 °F 96% 29.76 in 6.0 mi NW 10.4 mph - 0.19 in Rain Rain
7:53 AM 39.0 °F 30.6 °F 37.9 °F 96% 29.79 in 9.0 mi NW 15.0 mph 20.7 mph 0.08 in Rain Light Rain
8:53 AM 37.0 °F 28.9 °F 36.0 °F 96% 29.86 in 5.0 mi WNW 12.7 mph 18.4 mph 0.09 in Rain Rain
9:53 AM 35.6 °F 28.6 °F 35.6 °F 100% 29.84 in 5.0 mi NNW 9.2 mph - N/A Rain Light Rain
10:12 AM 33.8 °F 27.0 °F 33.8 °F 100% 29.86 in 2.5 mi North 8.1 mph 19.6 mph 0.10 in Rain Heavy Rain
10:53 AM 33.1 °F 25.5 °F 33.1 °F 100% 29.92 in 4.0 mi NW 9.2 mph - 0.29 in Rain Heavy Rain
11:23 AM 32.0 °F 22.1 °F 32.0 °F 100% 29.92 in 4.0 mi NW 13.8 mph - 0.05 in Rain Light Freezing Rain
11:51 AM 32.0 °F 21.6 °F 30.2 °F 93% 29.92 in 6.0 mi NW 15.0 mph - 0.05 in   Light Freezing Drizzle
11:53 AM 32.0 °F 22.5 °F 30.9 °F 96% 29.92 in 6.0 mi NW 12.7 mph - 0.05 in   Light Freezing Drizzle
12:53 PM 30.9 °F 20.2 °F 30.9 °F 100% 29.93 in 7.0 mi NW 15.0 mph 20.7 mph 0.00 in   Light Freezing Drizzle
1:53 PM 30.9 °F 20.7 °F 30.9 °F 100% 29.96 in 8.0 mi NW 13.8 mph 17.3 mph 0.00 in   Overcast
2:36 PM 30.2 °F 20.2 °F 30.2 °F 100% 29.96 in 10.0 mi NW 12.7 mph 18.4 mph N/A   Overcast
2:53 PM 30.9 °F 20.7 °F 30.0 °F 96% 30.00 in 10.0 mi WNW 13.8 mph 23.0 mph N/A   Overcast
3:11 PM 30.2 °F 18.5 °F 28.4 °F 93% 29.99 in 10.0 mi NW 17.3 mph 21.9 mph N/A   Overcast
3:53 PM 30.9 °F 20.2 °F 28.9 °F 92% 30.00 in 10.0 mi NW 15.0 mph - N/A   Overcast
4:53 PM 32.0 °F 23.0 °F 28.9 °F 88% 30.04 in 10.0 mi NW 11.5 mph - N/A   Mostly Cloudy
5:53 PM 32.0 °F 24.2 °F 27.0 °F 82% 30.10 in 10.0 mi NW 9.2 mph - N/A   Scattered Clouds
6:53 PM 30.0 °F 23.2 °F 25.0 °F 82% 30.14 in 10.0 mi NW 6.9 mph - N/A   Scattered Clouds
7:53 PM 28.9 °F 21.9 °F 23.0 °F 78% 30.16 in 10.0 mi NW 6.9 mph - N/A   Scattered Clouds
8:53 PM 28.9 °F 21.1 °F 21.9 °F 75% 30.19 in 10.0 mi WNW 8.1 mph - N/A   Scattered Clouds
9:53 PM 28.0 °F 20.8 °F 21.9 °F 78% 30.22 in 10.0 mi WNW 6.9 mph - N/A   Partly Cloudy
10:53 PM 27.0 °F 23.0 °F 19.9 °F 75% 30.23 in 10.0 mi West 3.5 mph - N/A   Partly Cloudy
11:53 PM 26.1 °F 19.4 °F 19.0 °F 75% 30.25 in 10.0 mi West 5.8 mph - N/A   Clear